| time (UTC) | temp F | wind direction | speed MPH | gust MPH | rain 1hr in | rain 24hr in | rain mn in | humidity % | barometer mb |
| 20260510061807 | 61 | 199 | 1.0 | 5.0 | 0.00 | 0.00 | 0.00 | 63 | 1030.4 |
| 20260510061308 | 61 | 91 | 1.0 | 5.0 | 0.00 | 0.00 | 0.00 | 64 | 1030.3 |
| 20260510060808 | 61 | 116 | 2.0 | 3.0 | 0.00 | 0.00 | 0.00 | 63 | 1030.4 |
| 20260510055806 | 61 | 155 | 2.0 | 5.0 | 0.00 | 0.00 | 0.00 | 63 | 1030.3 |
| 20260510055308 | 61 | 139 | 2.0 | 5.0 | 0.00 | 0.00 | 0.00 | 63 | 1030.4 |
| 20260510054808 | 61 | 90 | 2.0 | 3.0 | 0.00 | 0.00 | 0.00 | 62 | 1030.1 |
| 20260510053807 | 61 | 202 | 1.0 | 3.0 | 0.00 | 0.00 | 0.00 | 63 | 1030.1 |
| 20260510053308 | 61 | 180 | 0.0 | 3.0 | 0.00 | 0.00 | 0.00 | 64 | 1030.3 |
| 20260510052808 | 61 | 223 | 1.0 | 5.0 | 0.00 | 0.00 | 0.00 | 65 | 1030.3 |
| 20260510052307 | 61 | 291 | 2.0 | 5.0 | 0.00 | 0.00 | 0.00 | 65 | 1030.0 |
| 20260510051806 | 61 | 224 | 2.0 | 5.0 | 0.00 | 0.00 | 0.00 | 65 | 1030.2 |
| 20260510050807 | 61 | 133 | 3.0 | 6.0 | 0.00 | 0.00 | 0.00 | 64 | 1030.2 |
| 20260510050307 | 61 | 113 | 2.0 | 5.0 | 0.00 | 0.00 | 0.00 | 65 | 1030.2 |
| 20260510045807 | 61 | 114 | 1.0 | 5.0 | 0.00 | 0.00 | 0.00 | 64 | 1030.1 |
| 20260510045307 | 61 | 177 | 2.0 | 5.0 | 0.00 | 0.00 | 0.00 | 63 | 1030.2 |
| 20260510044807 | 61 | 221 | 1.0 | 5.0 | 0.00 | 0.00 | 0.00 | 63 | 1030.1 |
| 20260510044307 | 61 | 114 | 3.0 | 5.0 | 0.00 | 0.00 | 0.00 | 63 | 1030.3 |
| 20260510043807 | 62 | 112 | 2.0 | 5.0 | 0.00 | 0.00 | 0.00 | 62 | 1030.1 |
| 20260510043307 | 62 | 114 | 1.0 | 3.0 | 0.00 | 0.00 | 0.00 | 62 | 1030.1 |
| 20260510042807 | 62 | 112 | 1.0 | 3.0 | 0.00 | 0.00 | 0.00 | 62 | 1030.0 |
| 20260510042307 | 62 | 199 | 2.0 | 3.0 | 0.00 | 0.00 | 0.00 | 62 | 1030.2 |
| 20260510041806 | 62 | 176 | 3.0 | 6.0 | 0.00 | 0.00 | 0.00 | 62 | 1030.1 |
| 20260510041307 | 62 | 118 | 3.0 | 6.0 | 0.00 | 0.00 | 0.00 | 61 | 1030.1 |
| 20260510035807 | 62 | 124 | 1.0 | 3.0 | 0.00 | 0.00 | 0.00 | 61 | 1030.1 |
| 20260510035307 | 62 | 114 | 1.0 | 2.0 | 0.00 | 0.00 | 0.00 | 61 | 1030.3 |
| 20260510034807 | 62 | 230 | 2.0 | 5.0 | 0.00 | 0.00 | 0.00 | 62 | 1030.4 |
| 20260510033807 | 61 | 157 | 3.0 | 5.0 | 0.00 | 0.00 | 0.00 | 62 | 1030.2 |
| 20260510032807 | 61 | 143 | 2.0 | 6.0 | 0.00 | 0.00 | 0.00 | 64 | 1030.3 |
| 20260510032306 | 62 | 175 | 1.0 | 5.0 | 0.00 | 0.00 | 0.00 | 63 | 1030.5 |
| 20260510031307 | 62 | 154 | 2.0 | 5.0 | 0.00 | 0.00 | 0.00 | 62 | 1030.4 |
| 20260510030807 | 62 | 222 | 2.0 | 3.0 | 0.00 | 0.00 | 0.00 | 63 | 1030.5 |
| 20260510030307 | 61 | 268 | 0.0 | 6.0 | 0.00 | 0.00 | 0.00 | 64 | 1030.4 |
| 20260510025807 | 61 | 225 | 2.0 | 6.0 | 0.00 | 0.00 | 0.00 | 63 | 1030.5 |
| 20260510024806 | 61 | 248 | 2.0 | 5.0 | 0.00 | 0.00 | 0.00 | 64 | 1030.7 |
| 20260510024307 | 61 | 113 | 2.0 | 5.0 | 0.00 | 0.00 | 0.00 | 62 | 1030.9 |
| 20260510023807 | 61 | 225 | 1.0 | 6.0 | 0.00 | 0.00 | 0.00 | 62 | 1030.9 |
| 20260510023308 | 61 | 133 | 3.0 | 6.0 | 0.00 | 0.00 | 0.00 | 62 | 1030.9 |
| 20260510022807 | 61 | 190 | 2.0 | 6.0 | 0.00 | 0.00 | 0.00 | 64 | 1030.9 |
| 20260510022308 | 62 | 185 | 3.0 | 6.0 | 0.00 | 0.00 | 0.00 | 62 | 1030.9 |
| 20260510021307 | 62 | 96 | 2.0 | 6.0 | 0.00 | 0.00 | 0.00 | 62 | 1030.9 |
| 20260510020807 | 61 | 178 | 2.0 | 6.0 | 0.00 | 0.00 | 0.00 | 62 | 1031.3 |
| 20260510020307 | 61 | 110 | 2.0 | 5.0 | 0.00 | 0.00 | 0.00 | 62 | 1031.3 |
| 20260510015807 | 61 | 221 | 1.0 | 6.0 | 0.00 | 0.00 | 0.00 | 63 | 1031.2 |
| 20260510015308 | 61 | 197 | 3.0 | 7.0 | 0.00 | 0.00 | 0.00 | 63 | 1031.3 |
| 20260510014307 | 61 | 113 | 3.0 | 6.0 | 0.00 | 0.00 | 0.00 | 65 | 1031.4 |
| 20260510013307 | 61 | 116 | 3.0 | 6.0 | 0.00 | 0.00 | 0.00 | 64 | 1031.6 |
| 20260510012807 | 61 | 135 | 1.0 | 5.0 | 0.00 | 0.00 | 0.00 | 62 | 1031.6 |
| 20260510012307 | 62 | 112 | 2.0 | 3.0 | 0.00 | 0.00 | 0.00 | 61 | 1031.7 |
| 20260510011807 | 63 | 136 | 2.0 | 3.0 | 0.00 | 0.00 | 0.00 | 61 | 1031.7 |
| 20260510011307 | 63 | 112 | 2.0 | 6.0 | 0.00 | 0.00 | 0.00 | 60 | 1031.6 |
| 20260510010807 | 62 | 68 | 2.0 | 5.0 | 0.00 | 0.00 | 0.00 | 60 | 1031.6 |
| 20260510010308 | 61 | 92 | 2.0 | 5.0 | 0.00 | 0.00 | 0.00 | 62 | 1031.6 |
| 20260510005807 | 60 | 132 | 2.0 | 5.0 | 0.00 | 0.00 | 0.00 | 63 | 1031.6 |
| 20260510005308 | 60 | 160 | 3.0 | 6.0 | 0.00 | 0.00 | 0.00 | 63 | 1031.8 |
| 20260510004808 | 60 | 161 | 2.0 | 7.0 | 0.00 | 0.00 | 0.00 | 63 | 1031.7 |
| 20260510003807 | 61 | 221 | 3.0 | 6.0 | 0.00 | 0.00 | 0.00 | 64 | 1031.7 |
| 20260510003307 | 60 | 119 | 2.0 | 5.0 | 0.00 | 0.00 | 0.00 | 65 | 1031.6 |
| 20260510002807 | 60 | 160 | 1.0 | 5.0 | 0.00 | 0.00 | 0.00 | 69 | 1031.7 |
| 20260510002307 | 60 | 199 | 2.0 | 6.0 | 0.00 | 0.00 | 0.00 | 69 | 1031.7 |
| 20260510001807 | 59 | 200 | 2.0 | 7.0 | 0.00 | 0.00 | 0.00 | 71 | 1031.6 |
| 20260510000806 | 59 | 181 | 2.0 | 6.0 | 0.00 | 0.00 | 0.00 | 76 | 1031.7 |
| 20260510000311 | 59 | 192 | 1.0 | 3.0 | 0.00 | 0.00 | 0.00 | 81 | 1031.7 |
| 20260509235807 | 58 | 209 | 2.0 | 5.0 | 0.00 | 0.00 | 0.00 | 81 | 1031.8 |
| 20260509235307 | 58 | 269 | 2.0 | 3.0 | 0.00 | 0.00 | 0.00 | 82 | 1031.6 |
| 20260509234807 | 58 | 230 | 2.0 | 3.0 | 0.00 | 0.00 | 0.00 | 83 | 1031.7 |
| 20260509234307 | 58 | 241 | 2.0 | 5.0 | 0.00 | 0.00 | 0.00 | 83 | 1031.7 |
| 20260509233307 | 58 | 182 | 1.0 | 3.0 | 0.00 | 0.00 | 0.00 | 85 | 1031.7 |
| 20260509232807 | 57 | 247 | 1.0 | 3.0 | 0.00 | 0.00 | 0.00 | 85 | 1031.6 |
| 20260509232307 | 57 | 268 | 1.0 | 3.0 | 0.00 | 0.00 | 0.00 | 85 | 1031.6 |
| 20260509231806 | 57 | 251 | 2.0 | 5.0 | 0.00 | 0.00 | 0.00 | 85 | 1031.7 |
| 20260509231306 | 57 | 201 | 2.0 | 5.0 | 0.00 | 0.00 | 0.00 | 86 | 1031.7 |
| 20260509230807 | 57 | 232 | 1.0 | 3.0 | 0.00 | 0.00 | 0.00 | 86 | 1031.6 |
| 20260509230308 | 57 | 205 | 1.0 | 2.0 | 0.00 | 0.00 | 0.00 | 87 | 1031.5 |
| 20260509225308 | 56 | 270 | 1.0 | 1.0 | 0.00 | 0.00 | 0.00 | 88 | 1031.6 |
| 20260509224807 | 56 | 268 | 1.0 | 2.0 | 0.00 | 0.00 | 0.00 | 88 | 1031.6 |
| 20260509224307 | 56 | 226 | 1.0 | 2.0 | 0.00 | 0.00 | 0.00 | 88 | 1031.4 |
| 20260509223807 | 56 | 203 | 1.0 | 2.0 | 0.00 | 0.00 | 0.00 | 89 | 1031.4 |
| 20260509222807 | 56 | 270 | 1.0 | 1.0 | 0.00 | 0.00 | 0.00 | 90 | 1031.4 |
| 20260509221806 | 55 | 248 | 0.0 | 1.0 | 0.00 | 0.00 | 0.00 | 91 | 1031.4 |
| 20260509221308 | 55 | 270 | 1.0 | 2.0 | 0.00 | 0.00 | 0.00 | 91 | 1031.2 |
| 20260509220807 | 55 | 268 | 0.0 | 2.0 | 0.00 | 0.00 | 0.00 | 92 | 1031.2 |
| 20260509220307 | 55 | 270 | 1.0 | 1.0 | 0.00 | 0.00 | 0.00 | 92 | 1031.0 |
| 20260509215807 | 55 | 250 | 0.0 | 1.0 | 0.00 | 0.00 | 0.00 | 92 | 1031.0 |
| 20260509215307 | 55 | 204 | 0.0 | 1.0 | 0.00 | 0.00 | 0.00 | 92 | 1030.8 |
| 20260509214808 | 55 | 226 | 1.0 | 1.0 | 0.00 | 0.00 | 0.00 | 92 | 1030.8 |
| 20260509214308 | 55 | 248 | 1.0 | 1.0 | 0.00 | 0.00 | 0.00 | 92 | 1030.6 |
| 20260509213307 | 55 | 270 | 0.0 | 2.0 | 0.00 | 0.00 | 0.00 | 93 | 1030.7 |
| 20260509212806 | 55 | 270 | 1.0 | 2.0 | 0.00 | 0.00 | 0.00 | 93 | 1030.4 |
| 20260509212307 | 55 | 249 | 1.0 | 1.0 | 0.00 | 0.00 | 0.00 | 93 | 1030.6 |
| 20260509211307 | 55 | 243 | 2.0 | 3.0 | 0.00 | 0.00 | 0.00 | 93 | 1030.4 |
| 20260509210808 | 55 | 226 | 1.0 | 2.0 | 0.00 | 0.00 | 0.00 | 93 | 1030.5 |
| 20260509210307 | 55 | 270 | 1.0 | 2.0 | 0.00 | 0.00 | 0.00 | 94 | 1030.3 |
| 20260509205308 | 55 | 228 | 1.0 | 2.0 | 0.00 | 0.00 | 0.00 | 94 | 1030.3 |
| 20260509204808 | 55 | 292 | 0.0 | 1.0 | 0.00 | 0.00 | 0.00 | 94 | 1030.1 |
| 20260509204307 | 55 | 270 | 0.0 | 0.0 | 0.00 | 0.00 | 0.00 | 94 | 1030.2 |
| 20260509203807 | 55 | 248 | 0.0 | 1.0 | 0.00 | 0.00 | 0.00 | 94 | 1030.2 |
| 20260509203307 | 55 | 292 | 0.0 | 0.0 | 0.00 | 0.00 | 0.00 | 94 | 1030.1 |
| 20260509202808 | 55 | 292 | 0.0 | 0.0 | 0.00 | 0.00 | 0.00 | 94 | 1030.1 |
| 20260509202307 | 55 | 292 | 0.0 | 0.0 | 0.00 | 0.00 | 0.00 | 94 | 1030.1 |
| 20260509201806 | 55 | 292 | 0.0 | 0.0 | 0.00 | 0.00 | 0.00 | 94 | 1029.9 |
| 20260509200806 | 55 | 292 | 0.0 | 0.0 | 0.00 | 0.00 | 0.00 | 94 | 1029.9 |
| 20260509200307 | 55 | 292 | 0.0 | 0.0 | 0.00 | 0.00 | 0.00 | 94 | 1029.8 |
| 20260509195807 | 55 | 292 | 0.0 | 1.0 | 0.00 | 0.00 | 0.00 | 94 | 1029.8 |
| 20260509195307 | 55 | 270 | 0.0 | 1.0 | 0.00 | 0.00 | 0.00 | 94 | 1029.6 |
| 20260509194808 | 55 | 268 | 0.0 | 1.0 | 0.00 | 0.00 | 0.00 | 94 | 1029.6 |
| 20260509194308 | 55 | 246 | 0.0 | 1.0 | 0.00 | 0.00 | 0.00 | 94 | 1029.6 |
| 20260509193806 | 55 | 270 | 0.0 | 1.0 | 0.00 | 0.00 | 0.00 | 94 | 1029.4 |
| 20260509193307 | 55 | 270 | 1.0 | 1.0 | 0.00 | 0.00 | 0.00 | 94 | 1029.5 |
| 20260509192808 | 55 | 270 | 0.0 | 1.0 | 0.00 | 0.00 | 0.00 | 94 | 1029.3 |
| 20260509192308 | 55 | 227 | 0.0 | 1.0 | 0.00 | 0.00 | 0.00 | 94 | 1029.5 |
| 20260509191806 | 55 | 223 | 0.0 | 0.0 | 0.00 | 0.00 | 0.00 | 94 | 1029.4 |
| 20260509191307 | 55 | 227 | 0.0 | 1.0 | 0.00 | 0.00 | 0.00 | 94 | 1029.4 |
| 20260509190808 | 55 | 250 | 0.0 | 1.0 | 0.00 | 0.00 | 0.00 | 94 | 1029.3 |
| 20260509190308 | 55 | 251 | 1.0 | 1.0 | 0.00 | 0.00 | 0.00 | 94 | 1029.3 |
| 20260509185808 | 55 | 248 | 1.0 | 2.0 | 0.00 | 0.00 | 0.00 | 93 | 1029.3 |
| 20260509185307 | 55 | 267 | 1.0 | 2.0 | 0.00 | 0.00 | 0.00 | 93 | 1029.2 |
| 20260509184807 | 55 | 160 | 1.0 | 2.0 | 0.00 | 0.00 | 0.00 | 93 | 1029.2 |
| 20260509184307 | 55 | 212 | 1.0 | 3.0 | 0.00 | 0.00 | 0.00 | 93 | 1029.1 |
| 20260509183807 | 55 | 225 | 1.0 | 1.0 | 0.00 | 0.00 | 0.00 | 93 | 1029.1 |
| 20260509183308 | 55 | 225 | 0.0 | 1.0 | 0.00 | 0.00 | 0.00 | 93 | 1029.1 |
| 20260509182807 | 55 | 224 | 1.0 | 1.0 | 0.00 | 0.00 | 0.00 | 93 | 1029.1 |
| 20260509182307 | 55 | 227 | 0.0 | 1.0 | 0.00 | 0.00 | 0.00 | 93 | 1029.0 |
| 20260509180807 | 55 | 225 | 0.0 | 1.0 | 0.00 | 0.00 | 0.00 | 93 | 1028.8 |
| 20260509175807 | 55 | 205 | 1.0 | 2.0 | 0.00 | 0.00 | 0.00 | 93 | 1028.8 |
| 20260509175307 | 55 | 202 | 1.0 | 3.0 | 0.00 | 0.00 | 0.00 | 93 | 1028.7 |
| 20260509174808 | 55 | 200 | 1.0 | 2.0 | 0.00 | 0.00 | 0.00 | 93 | 1028.8 |
| 20260509174308 | 55 | 242 | 1.0 | 2.0 | 0.00 | 0.00 | 0.00 | 93 | 1028.8 |
| 20260509173807 | 55 | 187 | 1.0 | 3.0 | 0.00 | 0.00 | 0.00 | 93 | 1028.9 |
| 20260509173307 | 55 | 204 | 1.0 | 2.0 | 0.00 | 0.00 | 0.00 | 93 | 1028.7 |
| 20260509171807 | 55 | 262 | 1.0 | 2.0 | 0.00 | 0.00 | 0.00 | 93 | 1028.7 |
| 20260509171306 | 55 | 248 | 1.0 | 2.0 | 0.00 | 0.00 | 0.00 | 92 | 1028.8 |
| 20260509170808 | 55 | 249 | 1.0 | 2.0 | 0.00 | 0.00 | 0.00 | 92 | 1028.9 |
| 20260509170307 | 55 | 288 | 1.0 | 2.0 | 0.00 | 0.00 | 0.00 | 92 | 1028.9 |
| 20260509165807 | 55 | 246 | 1.0 | 2.0 | 0.00 | 0.00 | 0.00 | 92 | 1029.1 |
| 20260509164807 | 56 | 243 | 1.0 | 6.0 | 0.00 | 0.00 | 0.00 | 91 | 1028.9 |
| 20260509164308 | 56 | 223 | 1.0 | 2.0 | 0.00 | 0.00 | 0.00 | 91 | 1028.9 |
| 20260509163308 | 56 | 180 | 0.0 | 1.0 | 0.00 | 0.00 | 0.00 | 90 | 1028.9 |
| 20260509162808 | 56 | 244 | 1.0 | 2.0 | 0.00 | 0.00 | 0.00 | 90 | 1029.1 |
| 20260509162307 | 56 | 270 | 1.0 | 2.0 | 0.00 | 0.00 | 0.00 | 89 | 1029.0 |
| 20260509161806 | 56 | 248 | 0.0 | 1.0 | 0.00 | 0.00 | 0.00 | 89 | 1029.1 |
| 20260509161307 | 56 | 248 | 0.0 | 1.0 | 0.00 | 0.00 | 0.00 | 89 | 1029.1 |
| 20260509160807 | 56 | 225 | 0.0 | 1.0 | 0.00 | 0.00 | 0.00 | 89 | 1029.1 |
| 20260509160307 | 56 | 246 | 0.0 | 2.0 | 0.00 | 0.00 | 0.00 | 89 | 1028.9 |
| 20260509155808 | 56 | 246 | 0.0 | 0.0 | 0.00 | 0.00 | 0.00 | 89 | 1029.0 |
| 20260509154807 | 56 | 202 | 1.0 | 2.0 | 0.00 | 0.00 | 0.00 | 88 | 1029.0 |
| 20260509154308 | 56 | 270 | 1.0 | 2.0 | 0.00 | 0.00 | 0.00 | 88 | 1029.0 |
| 20260509153807 | 56 | 202 | 1.0 | 1.0 | 0.00 | 0.00 | 0.00 | 88 | 1029.3 |
| 20260509153307 | 56 | 208 | 1.0 | 3.0 | 0.00 | 0.00 | 0.00 | 88 | 1029.2 |
| 20260509152808 | 56 | 289 | 1.0 | 3.0 | 0.00 | 0.00 | 0.00 | 88 | 1029.1 |
| 20260509152307 | 56 | 228 | 2.0 | 3.0 | 0.00 | 0.00 | 0.00 | 88 | 1028.8 |
| 20260509151807 | 56 | 182 | 1.0 | 2.0 | 0.00 | 0.00 | 0.00 | 87 | 1029.1 |
| 20260509151307 | 57 | 247 | 1.0 | 3.0 | 0.00 | 0.00 | 0.00 | 87 | 1029.0 |
| 20260509150808 | 57 | 185 | 1.0 | 2.0 | 0.00 | 0.00 | 0.00 | 87 | 1029.1 |
| 20260509150307 | 57 | 264 | 1.0 | 3.0 | 0.00 | 0.00 | 0.00 | 87 | 1029.1 |
| 20260509145807 | 57 | 249 | 1.0 | 3.0 | 0.00 | 0.00 | 0.00 | 87 | 1029.2 |
| 20260509144807 | 57 | 270 | 1.0 | 3.0 | 0.00 | 0.00 | 0.00 | 86 | 1029.2 |
| 20260509143807 | 57 | 220 | 2.0 | 6.0 | 0.00 | 0.00 | 0.00 | 86 | 1029.0 |
| 20260509143308 | 57 | 247 | 2.0 | 5.0 | 0.00 | 0.00 | 0.00 | 86 | 1028.9 |
| 20260509142807 | 57 | 244 | 2.0 | 5.0 | 0.00 | 0.00 | 0.00 | 86 | 1029.0 |
| 20260509142308 | 57 | 215 | 2.0 | 5.0 | 0.00 | 0.00 | 0.00 | 87 | 1029.2 |
| 20260509141807 | 57 | 224 | 3.0 | 5.0 | 0.00 | 0.00 | 0.00 | 87 | 1028.9 |
| 20260509141307 | 57 | 210 | 1.0 | 3.0 | 0.00 | 0.00 | 0.00 | 87 | 1029.0 |
| 20260509140808 | 57 | 222 | 2.0 | 5.0 | 0.00 | 0.00 | 0.00 | 87 | 1029.0 |
| 20260509140308 | 57 | 160 | 1.0 | 5.0 | 0.00 | 0.00 | 0.00 | 88 | 1029.1 |
| 20260509135808 | 57 | 207 | 1.0 | 3.0 | 0.00 | 0.00 | 0.00 | 88 | 1029.0 |
| 20260509135307 | 57 | 225 | 1.0 | 2.0 | 0.00 | 0.00 | 0.00 | 88 | 1029.0 |
| 20260509134807 | 57 | 135 | 0.0 | 5.0 | 0.00 | 0.00 | 0.00 | 89 | 1028.9 |
| 20260509134308 | 57 | 205 | 1.0 | 3.0 | 0.00 | 0.00 | 0.00 | 89 | 1029.0 |
| 20260509133808 | 57 | 246 | 1.0 | 3.0 | 0.00 | 0.00 | 0.00 | 89 | 1028.9 |
| 20260509133308 | 57 | 163 | 0.0 | 1.0 | 0.00 | 0.00 | 0.00 | 90 | 1029.1 |
| 20260509132807 | 57 | 222 | 0.0 | 1.0 | 0.00 | 0.00 | 0.00 | 90 | 1029.0 |
| 20260509132307 | 57 | 223 | 0.0 | 1.0 | 0.00 | 0.00 | 0.00 | 90 | 1029.0 |
| 20260509131806 | 57 | 202 | 0.0 | 2.0 | 0.00 | 0.00 | 0.00 | 90 | 1029.0 |
| 20260509131307 | 57 | 225 | 1.0 | 2.0 | 0.00 | 0.00 | 0.00 | 90 | 1029.1 |
| 20260509130808 | 57 | 225 | 0.0 | 1.0 | 0.00 | 0.00 | 0.00 | 90 | 1029.0 |
| 20260509130307 | 57 | 225 | 0.0 | 0.0 | 0.00 | 0.00 | 0.00 | 90 | 1028.9 |
| 20260509125807 | 57 | 225 | 0.0 | 0.0 | 0.00 | 0.00 | 0.00 | 90 | 1029.1 |
| 20260509125308 | 57 | 225 | 0.0 | 0.0 | 0.00 | 0.00 | 0.00 | 90 | 1029.1 |
| 20260509124807 | 57 | 225 | 0.0 | 0.0 | 0.00 | 0.00 | 0.00 | 89 | 1029.1 |
| 20260509124308 | 57 | 225 | 0.0 | 0.0 | 0.00 | 0.00 | 0.00 | 89 | 1029.2 |
| 20260509122807 | 57 | 202 | 0.0 | 0.0 | 0.00 | 0.00 | 0.00 | 89 | 1029.0 |
| 20260509122307 | 57 | 202 | 0.0 | 1.0 | 0.00 | 0.00 | 0.00 | 89 | 1029.1 |
| 20260509121806 | 57 | 160 | 0.0 | 1.0 | 0.00 | 0.00 | 0.00 | 89 | 1029.1 |
| 20260509121308 | 58 | 158 | 0.0 | 1.0 | 0.00 | 0.00 | 0.00 | 89 | 1029.1 |
| 20260509120806 | 58 | 223 | 0.0 | 2.0 | 0.00 | 0.00 | 0.00 | 89 | 1029.1 |
| 20260509120307 | 58 | 248 | 1.0 | 3.0 | 0.00 | 0.00 | 0.00 | 88 | 1029.1 |
| 20260509115807 | 58 | 205 | 1.0 | 3.0 | 0.00 | 0.00 | 0.00 | 88 | 1029.1 |
| 20260509115308 | 58 | 200 | 2.0 | 3.0 | 0.00 | 0.00 | 0.00 | 87 | 1029.1 |
| 20260509114808 | 58 | 113 | 1.0 | 2.0 | 0.00 | 0.00 | 0.00 | 87 | 1028.9 |
| 20260509114307 | 58 | 156 | 1.0 | 2.0 | 0.00 | 0.00 | 0.00 | 87 | 1028.9 |
| 20260509113807 | 58 | 135 | 0.0 | 1.0 | 0.00 | 0.00 | 0.00 | 87 | 1028.9 |
| 20260509113308 | 58 | 138 | 1.0 | 1.0 | 0.00 | 0.00 | 0.00 | 87 | 1029.0 |
| 20260509112807 | 58 | 180 | 0.0 | 1.0 | 0.00 | 0.00 | 0.00 | 87 | 1028.9 |
| 20260509112307 | 58 | 202 | 1.0 | 2.0 | 0.00 | 0.00 | 0.00 | 87 | 1029.1 |
| 20260509111806 | 58 | 161 | 1.0 | 2.0 | 0.00 | 0.00 | 0.00 | 87 | 1029.0 |
| 20260509111308 | 58 | 140 | 1.0 | 2.0 | 0.00 | 0.00 | 0.00 | 87 | 1028.8 |
| 20260509105807 | 58 | 202 | 1.0 | 2.0 | 0.00 | 0.00 | 0.00 | 87 | 1028.9 |
| 20260509105307 | 57 | 175 | 1.0 | 2.0 | 0.00 | 0.00 | 0.00 | 87 | 1028.6 |
| 20260509104807 | 57 | 193 | 1.0 | 1.0 | 0.00 | 0.00 | 0.00 | 87 | 1028.8 |
| 20260509104307 | 57 | 112 | 0.0 | 1.0 | 0.00 | 0.00 | 0.00 | 88 | 1028.7 |
| 20260509103807 | 57 | 112 | 1.0 | 1.0 | 0.00 | 0.00 | 0.00 | 88 | 1028.6 |
| 20260509103307 | 57 | 158 | 0.0 | 1.0 | 0.00 | 0.00 | 0.00 | 88 | 1028.6 |
| 20260509102807 | 57 | 132 | 1.0 | 1.0 | 0.00 | 0.00 | 0.00 | 89 | 1028.6 |
| 20260509102306 | 57 | 112 | 0.0 | 0.0 | 0.00 | 0.00 | 0.00 | 89 | 1028.6 |
| 20260509101806 | 57 | 112 | 0.0 | 0.0 | 0.00 | 0.00 | 0.00 | 89 | 1028.8 |
| 20260509101308 | 57 | 112 | 0.0 | 0.0 | 0.00 | 0.00 | 0.00 | 89 | 1028.7 |
| 20260509100807 | 57 | 112 | 0.0 | 0.0 | 0.00 | 0.00 | 0.00 | 90 | 1028.9 |
| 20260509100307 | 56 | 112 | 0.0 | 1.0 | 0.00 | 0.00 | 0.00 | 90 | 1028.8 |
| 20260509095807 | 56 | 112 | 0.0 | 1.0 | 0.00 | 0.00 | 0.00 | 90 | 1028.8 |
| 20260509094807 | 56 | 112 | 0.0 | 1.0 | 0.00 | 0.00 | 0.00 | 90 | 1028.7 |
| 20260509093807 | 56 | 90 | 0.0 | 1.0 | 0.00 | 0.00 | 0.00 | 90 | 1028.5 |
| 20260509093307 | 56 | 90 | 0.0 | 1.0 | 0.00 | 0.00 | 0.00 | 90 | 1028.7 |
| 20260509092807 | 56 | 90 | 0.0 | 0.0 | 0.00 | 0.00 | 0.00 | 90 | 1028.6 |
| 20260509092308 | 56 | 90 | 0.0 | 0.0 | 0.00 | 0.00 | 0.00 | 90 | 1028.5 |
| 20260509091307 | 55 | 90 | 0.0 | 1.0 | 0.00 | 0.00 | 0.00 | 90 | 1028.4 |
| 20260509090807 | 55 | 90 | 0.0 | 0.0 | 0.00 | 0.00 | 0.00 | 89 | 1028.3 |
| 20260509090307 | 54 | 90 | 0.0 | 0.0 | 0.00 | 0.00 | 0.00 | 89 | 1028.5 |
| 20260509085808 | 54 | 90 | 0.0 | 0.0 | 0.00 | 0.00 | 0.00 | 88 | 1028.4 |
| 20260509085307 | 54 | 90 | 0.0 | 0.0 | 0.00 | 0.00 | 0.00 | 88 | 1028.5 |
| 20260509084807 | 55 | 90 | 0.0 | 0.0 | 0.00 | 0.00 | 0.00 | 88 | 1028.3 |
| 20260509084308 | 55 | 90 | 0.0 | 0.0 | 0.00 | 0.00 | 0.00 | 88 | 1028.3 |
| 20260509083807 | 55 | 90 | 0.0 | 0.0 | 0.00 | 0.00 | 0.00 | 88 | 1028.4 |
| 20260509083308 | 56 | 90 | 0.0 | 0.0 | 0.00 | 0.00 | 0.00 | 88 | 1028.2 |
| 20260509081307 | 56 | 90 | 0.0 | 0.0 | 0.00 | 0.00 | 0.00 | 86 | 1028.0 |
| 20260509080807 | 57 | 90 | 0.0 | 0.0 | 0.00 | 0.00 | 0.00 | 86 | 1028.0 |
| 20260509080307 | 57 | 90 | 0.0 | 2.0 | 0.00 | 0.00 | 0.00 | 86 | 1027.7 |
| 20260509075806 | 57 | 112 | 0.0 | 0.0 | 0.00 | 0.00 | 0.00 | 85 | 1027.9 |
| 20260509075307 | 57 | 112 | 0.0 | 3.0 | 0.00 | 0.00 | 0.00 | 85 | 1027.8 |
| 20260509073308 | 58 | 120 | 1.0 | 2.0 | 0.00 | 0.00 | 0.00 | 83 | 1027.5 |
| 20260509072808 | 58 | 112 | 1.0 | 3.0 | 0.00 | 0.00 | 0.00 | 82 | 1027.5 |
| 20260509072308 | 59 | 106 | 2.0 | 6.0 | 0.00 | 0.00 | 0.00 | 82 | 1027.3 |
| 20260509071807 | 59 | 199 | 1.0 | 5.0 | 0.00 | 0.00 | 0.00 | 81 | 1027.4 |
| 20260509071307 | 59 | 178 | 1.0 | 3.0 | 0.00 | 0.00 | 0.00 | 79 | 1027.4 |
| 20260509070808 | 60 | 135 | 1.0 | 3.0 | 0.00 | 0.00 | 0.00 | 79 | 1027.3 |
| 20260509070307 | 60 | 180 | 2.0 | 3.0 | 0.00 | 0.00 | 0.00 | 78 | 1027.3 |
| 20260509065807 | 60 | 156 | 2.0 | 3.0 | 0.00 | 0.00 | 0.00 | 76 | 1027.3 |
| 20260509065307 | 60 | 119 | 2.0 | 5.0 | 0.00 | 0.00 | 0.00 | 76 | 1027.4 |
| 20260509064808 | 60 | 119 | 3.0 | 5.0 | 0.00 | 0.00 | 0.00 | 76 | 1027.3 |
| 20260509064308 | 60 | 200 | 2.0 | 5.0 | 0.00 | 0.00 | 0.00 | 75 | 1027.2 |
| 20260509063807 | 60 | 118 | 2.0 | 5.0 | 0.00 | 0.00 | 0.00 | 75 | 1027.0 |
| 20260509063306 | 61 | 140 | 2.0 | 6.0 | 0.00 | 0.00 | 0.00 | 75 | 1027.2 |
| 20260509062807 | 61 | 135 | 2.0 | 5.0 | 0.00 | 0.00 | 0.00 | 75 | 1027.1 |